Weather observations for the past three days for
Milton - Whiting Field Naval Air Station North
Imperial (Metric)
Date Time (cdt) Wind (mph) Vis. (mi.) Weather Sky Cond. Temperature (ºF) Relative Humidity Wind Chill (°F) Heat Index (°F) Pressure Precipitation (in)
Air Dwpt 6 hour altimeter (in) sea level (mb) 1 hr 3 hr 6 hr
Max. Min.
24 00:56 Calm 10.00 Fair CLR 77 73.9 84 77 90% 78 30.14 1018.9
23 23:56 Calm 10.00 Fair CLR 78.1 75 90% 81 30.14 1018.9
23 21:56 N 3 10.00 Mostly Cloudy SCT030 SCT120 BKN250 78.1 75.9 93% 81 30.14 1019.1
23 20:56 Calm 10.00 Mostly Cloudy FEW030 SCT120 BKN250 79 77 94% 83 30.13 1018.6
23 19:56 S 5 10.00 Mostly Cloudy FEW030 SCT120 BKN250 82 75.9 82% 89 30.1 1017.6
23 18:56 SE 5 10.00 Mostly Cloudy SCT030 SCT120 BKN250 84 75.9 91 84 77% 93 30.08 1016.9
23 17:56 S 7 10.00 Mostly Cloudy SCT030 SCT120 BKN250 86 75.9 72% 96 30.08 1016.8
23 16:56 S 9 10.00 Mostly Cloudy SCT030 SCT120 BKN250 87.1 75 67% 97 30.07 1016.6
23 15:56 SE 9 10.00 Mostly Cloudy SCT030 SCT120 BKN250 88 73 61% 96 30.08 1016.9
23 14:56 S 12 10.00 Mostly Cloudy SCT030 SCT060 BKN120 BKN250 87.1 71.1 59% 93 30.07 1016.7
23 13:56 S 13 10.00 Thunderstorm SCT030CB BKN100 BKN250 89.1 75 63% 99 30.07 1016.8
23 12:56 Vrbl 6 10.00 Mostly Cloudy SCT036 SCT060 BKN250 90 75.9 90 75 63% 102 30.08 1017.0
23 11:56 SE 5 10.00 Mostly Cloudy FEW020 SCT037 BKN250 90 75 62% 100 30.1 1017.6
23 10:56 SE 7 10.00 Mostly Cloudy SCT030 SCT050 BKN250 89.1 73.9 61% 98 30.11 1018.0
23 09:56 Calm 10.00 Mostly Cloudy SCT020 SCT050 BKN250 84.9 73.9 70% 92 30.11 1018.0
23 08:56 Calm 10.00 Partly Cloudy FEW020 FEW150 SCT250 84 77 80% 94 30.1 1017.6
23 07:56 Calm 10.00 Mostly Cloudy FEW015 FEW030 SCT150 BKN220 79 77 94% 83 30.1 1017.5
23 06:56 Calm 10.00 Mostly Cloudy FEW030 SCT120 BKN220 75 73.9 75 73 96% 73 30.07 1016.8
23 05:56 Calm 8.00 Mostly Cloudy FEW030 SCT120 BKN220 73.9 73 97% 30.06 1016.4
23 04:56 Calm 9.00 Fair CLR 73.9 73 97% 30.06 1016.3
23 03:56 Calm 10.00 Fair CLR 73.9 73 97% 30.05 1016.1
23 01:56 Calm 10.00 Fair CLR 75 73.9 96% 73 30.05 1016.0
23 00:56 Calm 10.00 Fair CLR 75 73.9 84 75 96% 73 30.06 1016.2
22 23:56 Calm 10.00 Fair CLR 75 73.9 96% 73 30.05 1016.2
22 22:56 Calm 10.00 Mostly Cloudy FEW030 SCT120 BKN250 77 75 94% 78 30.07 1016.6
22 21:56 S 3 10.00 Mostly Cloudy FEW025 SCT120 BKN250 77 75 94% 78 30.06 1016.1
22 20:56 S 6 10.00 Mostly Cloudy FEW030 SCT120 BKN250 80.1 75 85% 85 30.04 1015.5
22 19:56 S 6 10.00 Mostly Cloudy FEW025 SCT120 BKN250 81 75 82% 87 30.03 1015.3
22 18:56 S 8 10.00 Mostly Cloudy FEW025 SCT120 BKN250 84 75.9 87.1 75 77% 93 30 1014.4 0.12
22 17:56 S 7 10.00 Mostly Cloudy FEW025 SCT120 BKN250 86 75.9 72% 96 29.98 1013.7
22 16:56 Vrbl 6 10.00 Mostly Cloudy FEW025 SCT050 BKN120 BKN250 86 77 75% 97 29.98 1013.4
22 15:56 S 6 10.00 Mostly Cloudy SCT030 BKN050 BKN100 BKN150 82.9 75.9 79% 91 30 1014.2 0.01 0.12
22 14:56 W 6 10.00 Thunderstorm Rain SCT030CB BKN050 BKN100 BKN150 80.1 75 85% 85 30.03 1015.4 0.11
22 13:56 Calm 10.00 Mostly Cloudy FEW020 SCT035 BKN100 BKN150 BKN250 82.9 73.9 74% 89 30.03 1015.5
22 12:56 Calm 10.00 Mostly Cloudy FEW020 SCT037 BKN090 BKN130 75 73.9 86 73 96% 73 30.05 1016.2 0.13 0.62
22 11:56 SW 6 1.00 Thunderstorm Heavy Rain Fog/Mist BKN027CB BKN070 OVC090 74.8 72 91% 30.07 1016.8 0.26
22 10:56 W 3 1.00 Thunderstorm Heavy Rain Fog/Mist SCT019 BKN048CB BKN120 77 73 88% 78 30.07 1016.8 0.23
22 09:56 S 5 10.00 Mostly Cloudy FEW013 SCT030 BKN150 82.9 75.9 79% 91 30.06 1016.5
22 08:56 Vrbl 3 10.00 Mostly Cloudy FEW020 BKN150 80.1 75.9 87% 85 30.06 1016.5
22 07:56 Calm 10.00 Mostly Cloudy FEW020 SCT050 BKN120 BKN200 75.9 75 97% 75 30.04 1015.8
22 06:56 Calm 10.00 Mostly Cloudy FEW020 BKN060 BKN150 75 73.9 75.9 73 96% 73 30.02 1015.2
22 05:56 Calm 10.00 Mostly Cloudy SCT080 BKN150 BKN250 73 72 96% 30.02 1014.9
22 02:56 Calm 10.00 Fair CLR 73.9 73 97% 30.02 1014.9
22 01:56 Calm 10.00 Fair CLR 75 73.9 96% 73 30.03 1015.2
22 00:56 SE 3 10.00 Fair CLR 75 73.9 80.1 75 96% 73 30.05 1016.1 0.01
21 23:56 Calm 10.00 Partly Cloudy FEW048 FEW085 SCT120 75 73.9 96% 73 30.06 1016.4 0.01
21 22:56 SE 3 10.00 Fair CLR 75 73.9 96% 73 30.06 1016.5
21 21:56 SE 3 10.00 Mostly Cloudy SCT040 BKN120 BKN200 75 73 94% 73 30.06 1016.3
21 20:56 Calm 10.00 Mostly Cloudy SCT040 BKN120 BKN200 75.9 73.9 94% 75 30.06 1016.3
21 19:56 Calm 10.00 Mostly Cloudy SCT040 BKN120 BKN200 77 75 94% 78 30.05 1015.9
21 18:56 W 5 10.00 Mostly Cloudy FEW040 SCT150 BKN200 80.1 73.9 84.9 75.9 82% 85 30.03 1015.5
21 17:56 S 5 10.00 Mostly Cloudy FEW030 BKN150 BKN200 81 73 77% 86 30.02 1014.9
21 16:56 S 5 10.00 Mostly Cloudy FEW030 BKN150 BKN200 82 73 74% 87 29.99 1014.2
21 15:56 SW 7 10.00 Fair CLR 82.9 73.9 74% 89 30.02 1015.0
21 14:56 Calm 10.00 Fair CLR 82.9 73.9 74% 89 30.03 1015.3
21 13:56 S 5 10.00 A Few Clouds FEW006 80.1 75.9 87% 85 30.04 1015.6
21 12:56 SW 7 10.00 Mostly Cloudy FEW028 SCT043 BKN075 75.9 73.9 82.9 73.9 94% 75 30.06 1016.2 0.04 0.16
21 10:56 W 8 10.00 Thunderstorm Light Rain SCT007 BKN013 BKN080 77 75 94% 78 30.09 1017.3 0.01
21 08:56 Calm 10.00 Fair CLR 82 77 85% 90 30.07 1016.5
21 07:56 Calm 10.00 A Few Clouds FEW100 79 77 94% 83 30.06 1016.4
21 05:56 Calm 9.00 Fair CLR 75 73.9 96% 73 30.05 1015.9
21 04:56 Calm 7.00 Fair CLR 75 73.9 96% 73 30.04 1015.5
21 03:56 Calm 7.00 Fair CLR 75 73.9 96% 73 30.03 1015.4
21 02:56 Calm 10.00 Fair CLR 75.9 73.9 94% 75 30.03 1015.5
21 01:56 Calm 10.00 Fair CLR 77 75 94% 78 30.04 1015.8
Date Time (cdt) Wind (mph) Vis. (mi.) Weather Sky Cond. Air Dwpt Max. Min. Relative Humidity Wind Chill (°F) Heat Index (°F) altimeter (in) sea level (mb) 1 hr 3 hr 6 hr
6 hour
Temperature (ºF) Pressure Precipitation (in)